Tracking 23645 objects as of 22-Sep-2021
HD Live streaming from Space Station
objects crossing your sky now

SATCOM 2R

Track SATCOM 2R now!
SATCOM 2R is classified as:


NORAD ID: 14328
Int'l Code: 1983-094A
Perigee: 35,964.8 km
Apogee: 36,107.0 km
Inclination: 15.2 °
Period: 1,448.5 minutes
Semi major axis: 42406 km
RCS: 4.023 m2 (large)
Launch date: September 8, 1983
Source: United States (US)
Launch site: AIR FORCE EASTERN TEST RANGE (AFETR)
aabbcc
Your satellite tracking list
Your tracking list is empty




NASA's NSSDC Master Catalog

Two Line Element Set (TLE):
1 14328U 83094A   21264.50069229 -.00000319  00000-0  00000-0 0  9994
2 14328  15.1628 359.3643 0016762  43.7097 289.2558  0.99414162138353
Source of the keplerian elements: AFSPC